User: anonymous   Login
Location: Unspecified
(0.0000°N, 0.0000°E)
Time: 23:42:10
(UTC+00:00)
Language:

Tiros 1 - Orbit

View from above orbital plane
View from above orbital plane
View from above satellite
View from above satellite

Ground track
Ground track

The orbit data is extracted from the following two-line orbital elements,

1 00029U 60002B   17349.17033610 -.00000116  00000-0  13739-4 0  9990
2 00029  48.3805 307.6719 0024775 277.1769  82.6326 14.74216741 83609
Epoch (UTC): 15 December 2017 04:05:17
Eccentricity: 0.0024775
inclination: 48.3805°
perigee height: 630 km
apogee height: 665 km
right ascension of ascending node: 307.6719°
argument of perigee: 277.1769°
revolutions per day: 14.74216741
mean anomaly at epoch: 82.6326°
orbit number at epoch: 8360

The dashed part of the orbit path shows where the satellite is in the earth's shadow,  

DLR